Regional Weather Roundup
Issued by NWS

Home | Current Version | Previous Version | Graphics & Text | Print | Product List | Glossary On
Versions: 1 2 3 4 5 6 7 8 9 10 11 12 13 14 15 16 17 18 19 20 21 22 23 24 25 26 27 28 29 30 31 32 33 34 35 36 37 38 39 40 41 42 43 44 45 46 47 48 49 50
000
ASUS45 KTFX 191319
RWRMT
MONTANA HOURLY WEATHER ROUNDUP
NATIONAL WEATHER SERVICE GREAT FALLS MT
619 AM MST FRI DEC 19 2014

NOTE: "FAIR" INDICATES FEW OR NO CLOUDS BELOW 12000 FEET WITH NO
SIGNIFICANT WEATHER AND/OR OBSTRUCTIONS TO VISIBILITY.

* THESE STATIONS ARE NOT UNDER NWS QUALITY CONTROL. THEY DO NOT
   REPORT WEATHER SUCH AS PRECIPITATION OR FOG.

MTZ001>007-043-191400-
WEST OF THE DIVIDE
CITY           SKY/WX    TMP DP  RH WIND       PRES   REMARKS
KALISPELL      FOG       30  30 100 CALM      29.92F VSB 1 1/4
MISSOULA       CLOUDY    30  28  92 CALM      29.98S
BUTTE          CLOUDY    18  16  92 CALM      29.98R
MULLAN PASS    LGT SNOW  30  28  92 VRB7      29.84F VSB M1/4 WCI  23
* ANACONDA     PTCLDY    32  23  69 SE13       N/A   WCI  22
* ESSEX        N/A       29  28  96 N/A        N/A
* EUREKA APT   MOCLDY    39  32  76 S15       29.89F WCI  31
* HAMILTON APT PTCLDY    30  27  89 W2        29.95F
* LIBBY APT    MOCLDY    32  30  92 CALM      29.90F VSB 3
* LINCOLN      N/A       30  27  89 SW2G8      N/A
* LOOKOUT PASS N/A       32  32 100 SE2G10     N/A
* POLSON       N/A       33  31  92 N/A        N/A
* RONAN APT    MOCLDY    32  30  92 N/A        N/A
* SEELEY LAKE  N/A       25  24  96 N1         N/A
* THOMP F APT  PTCLDY    25  24  96 SE5G10     N/A   WCI  19
$$

MTZ008-052>055-191400-
SOUTHWEST MONTANA
CITY           SKY/WX    TMP DP  RH WIND       PRES   REMARKS
BOZEMAN        CLOUDY    27  21  78 S7        29.98S WCI  19
DILLON         CLOUDY    27  21  78 S8        29.99S WCI  19
* W YELLOWSTON MOCLDY    26  25  96 SW3G15     N/A
* THREE FORKS  MOCLDY    36  18  48 N/A        N/A
* BOULDER HILL N/A       28  17  63 S8         N/A   WCI  20
* MONIDA PASS  N/A       24  24 100 SE16       N/A   WCI  11
* RAYNOLDS PAS N/A       27  17  66 SW6        N/A   WCI  20
* WHITEHALL    N/A       29  20  69 NE3        N/A
* WISE RIVER   N/A       24  20  85 W5         N/A   WCI  18
$$

MTZ009>010-012-014-046-048-049-054-191400-
EAST SLOPES AND CENTRAL MONTANA
CITY           SKY/WX    TMP DP  RH WIND       PRES   REMARKS
CUT BANK       MOCLDY    28  23  81 SE6       29.82F WCI  21
GREAT FALLS    MOCLDY    34  25  70 S12       29.86F WCI  25
HELENA         PTCLDY    25  21  85 CALM      29.96S
MALMSTROM AFB  PTCLDY    30  25  82 SW15      29.89S WCI  19
* CONRAD       MOCLDY    19  16  88 CALM       N/A
* DEARBORN     N/A       40  25  55 S7G12      N/A   WCI  35
* EAST GLACIER N/A       35  27  73 W29G34     N/A   WCI  22
* MONARCH      N/A       31  17  56 S12        N/A   WCI  22
* PENDROY      N/A       29  18  63 N/A        N/A
* ROGERS PASS  N/A       31  24  75 E10G20     N/A   WCI  22
* SWEET GRASS  N/A       25  22  88 S12        N/A   WCI  14
* WHITE SULPH  N/A       33  21  61 S12G19     N/A   WCI  24
$$

MTZ011-013-016-021-035-040-045-047-050-051-191400-
NORTH CENTRAL MONTANA
CITY           SKY/WX    TMP DP  RH WIND       PRES   REMARKS
HAVRE          PTCLDY    21  19  92 W3        29.89R
LEWISTOWN      CLEAR     28  19  69 SW14      29.89S WCI  17
* N BAR RANCH  CLEAR     27  19  72 CALM      29.90S
* CHINOOK      PTCLDY    10   7  88 CALM      29.91S
* CHESTER      N/A       14  11  88 N2         N/A
* DENTON       N/A       25  20  81 S8         N/A   WCI  16
* GEYSER       N/A       36  21  54 SW19       N/A   WCI  25
* JUDITH GAP   N/A       29  20  69 SW9        N/A   WCI  21
* LOMA         N/A       24  21  88 E2         N/A
$$

MTZ017>020-022>027-061-062-191400-
NORTHEAST MONTANA
CITY           SKY/WX    TMP DP  RH WIND       PRES   REMARKS
GLASGOW        FOG       21  18  88 N3        29.90F
GLENDIVE       MOCLDY    27  23  85 S5        29.93S WCI  21
JORDAN         PTCLDY    19  18  96 W6        29.91S WCI  11
SIDNEY         MOCLDY    21  19  92 CALM      29.94R
WOLF POINT     PTCLDY    16  12  84 CALM      29.93S
* BEAVER HILL  N/A       28  23  81 SW9        N/A   WCI  19
* CIRCLE       N/A       28  25  89 N/A        N/A
* LINDSAY DVD  N/A       31  25  78 W6         N/A   WCI  25
* NAVAJO       N/A       22  21  96 NW3        N/A
* PLENTYWOOD A PTCLDY    16  14  92 CALM      29.90S VSB M1/4
* POPLAR APT   PTCLDY    18  16  92 CALM      29.92S VSB M1/4
* SACO         N/A       18  15  88 NE2        N/A
$$

MTZ028>042-056>058-191400-
SOUTHCENTRAL AND SOUTHEAST MONTANA
CITY           SKY/WX    TMP DP  RH WIND       PRES   REMARKS
BAKER          PTCLDY    27  21  78 W12       29.93S WCI  16
BILLINGS       PTCLDY    30  18  61 SW15      29.95S WCI  19
LIVINGSTON     MOCLDY    37  19  48 W22G28    29.93S WCI  26
MILES CITY     MOCLDY    25  19  78 S5        29.94F WCI  19
* FORSYTH APT  MOCLDY    30  19  64 CALM      29.94F
* LAUREL APT   PTCLDY    28  10  47 S6         N/A   WCI  21
* ROUNDUP APT  CLEAR     32  19  59 SW10G17    N/A   WCI  24
* ALZADA       N/A       25  18  75 W3         N/A
* HYSHAM       N/A       34  17  50 W4         N/A
* LAME DEER    N/A       34  16  48 W4         N/A
* REED POINT   N/A       19  18  96 SE3        N/A
* ROSCOE HILL  N/A       36   8  31 SW11G26    N/A   WCI  28
$$

REGIONAL REPORTS...DAKOTAS
CITY           SKY/WX    TMP DP  RH WIND       PRES   REMARKS
WILLISTON      FOG       23  19  85 SW3       29.92S VSB 1/2
DICKINSON      CLOUDY    30  23  75 W6        29.89S WCI  24
BEACH          CLEAR     27  25  92 SW10      29.92S WCI  18
CROSBY         FOG       23  23 100 CALM      29.92S VSB 1
TIOGA          FOG       23  23 100 W5        29.93S VSB 3/4  WCI  16
WATFORD CITY   CLEAR     19  18  96 CALM      29.90S
BISMARCK       CLOUDY    21  21 100 SE5       29.96S WCI  14
GRAND FORKS    FOG       21  21 100 S10       30.07S WCI  10
FARGO          FOG       25  21  85 S14       30.09F VSB 3    WCI  13
BUFFALO SD     PTCLDY    27  19  72 W9        29.88R WCI  18
RAPID CITY     PTCLDY    27  16  63 W3        29.98R
$$

REGIONAL REPORTS...WYOMING/IDAHO/WASHINGTON
CITY           SKY/WX    TMP DP  RH WIND       PRES   REMARKS
GILLETTE       PTCLDY    16  10  77 S5        29.97S WCI   8
SHERIDAN       PTCLDY    27  12  53 S5        29.95S WCI  21
CODY           PTCLDY    37  21  52 NW7G17    29.96S WCI  32
YELLOWSTONE LA MOCLDY    23  19  85 VRB5      30.07R WCI  16
SALMON         CLOUDY    27  25  92 NE3       30.06R
MULLAN PASS    LGT SNOW  30  28  92 VRB7      29.84S VSB M1/4 WCI  23
SAND POINT     N/A       34  34 100 CALM      29.89F
SPOKANE        LGT RAIN  39  37  93 SE6       29.87R WCI  35
$$

REGIONAL REPORTS...ALBERTA
CITY           SKY/WX    TMP DP  RH WIND       PRES   REMARKS
CALGARY        MOCLDY    19  16  88 S8        29.69F WCI   9
LETHBRIDGE     N/A       25  21  85 S18       29.77F WCI  11
MEDICINE HAT   FAIR      23  21  92 SW7       29.82F WCI  15
EDMONTON       FAIR      16  12  84 SE9       29.71F WCI   5
WATERTON GATE  N/A       37  28  70 SW24G35    N/A   WCI  26
CARDSTON       N/A       36  30  79 S7         N/A   WCI  30
MILK RIVER     N/A       16  14  92 S1         N/A
$$

REGIONAL REPORTS...SASKATCHEWAN
CITY           SKY/WX    TMP DP  RH WIND       PRES   REMARKS
SWIFT CURRENT  CLEAR     16  16 100 SW8       29.85S WCI   5
MOOSE JAW      LGT SNOW  16  16 100 NW5       29.92S VSB 3/4  WCI   8
REGINA         FOG       19  19 100 NW7       29.91R VSB 1/4  WCI  10
VAL MARIE      N/A        9   7  91 CALM       N/A
ASSINIBOIA     N/A       12  10  92 W3         N/A
CORONACH       N/A       10   7  88 S2         N/A

$$



USA.gov is the U.S. government's official web portal to all federal, state and local government web resources and services.